Time,TemperatureF,DewpointF,PressureIn,WindDirection,WindDirectionDegrees,WindSpeedMPH,WindSpeedGustMPH,Humidity,HourlyPrecipIn,Conditions,Clouds,dailyrainin,SoftwareType,DateUTC
2013-03-27 00:00:00,34.1,28.0,30.07,ESE,123,11.0,18.0,78,0.00,,---,0.00,VWS V14.00,2013-03-27 00:00:00,
2013-03-27 00:05:00,34.2,28.1,30.07,SSE,162,16.0,18.0,78,0.00,,---,0.00,VWS V14.00,2013-03-27 00:05:00,
2013-03-27 00:10:00,34.3,27.5,30.07,East,99,17.0,21.0,76,0.00,,---,0.00,VWS V14.00,2013-03-27 00:10:00,
2013-03-27 00:15:00,34.4,27.3,30.07,SE,125,17.0,24.0,75,0.00,,---,0.00,VWS V14.00,2013-03-27 00:15:00,
2013-03-27 00:20:00,34.4,26.7,30.07,East,98,14.0,19.0,73,0.00,,---,0.00,VWS V14.00,2013-03-27 00:20:00,
2013-03-27 00:25:00,34.4,26.3,30.07,East,98,14.0,23.0,72,0.00,,---,0.00,VWS V14.00,2013-03-27 00:25:00,
2013-03-27 00:30:00,34.4,26.0,30.07,ESE,118,19.0,21.0,71,0.00,,---,0.00,VWS V14.00,2013-03-27 00:30:00,
2013-03-27 00:35:00,34.3,26.2,30.07,ESE,105,12.0,16.0,72,0.00,,---,0.00,VWS V14.00,2013-03-27 00:35:00,
2013-03-27 00:40:00,34.4,26.0,30.07,ESE,107,15.0,15.0,71,0.00,,---,0.00,VWS V14.00,2013-03-27 00:40:00,
2013-03-27 00:45:00,34.4,26.7,30.07,ESE,122,17.0,17.0,73,0.00,,---,0.00,VWS V14.00,2013-03-27 00:45:00,
2013-03-27 00:51:00,34.5,26.8,30.07,ESE,113,18.0,19.0,73,0.00,,---,0.00,VWS V14.00,2013-03-27 00:51:00,
2013-03-27 00:56:00,34.6,26.5,30.06,ESE,105,13.0,16.0,72,0.00,,---,0.00,VWS V14.00,2013-03-27 00:56:00,
2013-03-27 01:01:00,34.5,26.4,30.06,East,100,18.0,20.0,72,0.00,,---,0.00,VWS V14.00,2013-03-27 01:01:00,
2013-03-27 01:07:00,34.6,27.2,30.06,SE,130,19.0,23.0,74,0.00,,---,0.00,VWS V14.00,2013-03-27 01:07:00,
2013-03-27 01:13:00,34.5,27.1,30.06,East,95,12.0,17.0,74,0.00,,---,0.00,VWS V14.00,2013-03-27 01:13:00,
2013-03-27 01:18:00,34.3,27.2,30.07,East,101,15.0,15.0,75,0.00,,---,0.00,VWS V14.00,2013-03-27 01:18:00,
2013-03-27 01:23:00,33.9,28.1,30.07,ESE,109,16.0,19.0,79,0.00,,---,0.00,VWS V14.00,2013-03-27 01:23:00,
2013-03-27 01:28:00,33.4,28.2,30.07,ESE,113,15.0,17.0,81,0.00,,---,0.00,VWS V14.00,2013-03-27 01:28:00,
2013-03-27 01:33:00,33.1,28.2,30.07,SE,130,9.0,17.0,82,0.00,,---,0.00,VWS V14.00,2013-03-27 01:33:00,
2013-03-27 01:38:00,33.0,28.4,30.07,SE,138,6.0,15.0,83,0.00,,---,0.00,VWS V14.00,2013-03-27 01:38:00,
2013-03-27 01:43:00,32.9,28.6,30.07,SE,124,11.0,15.0,84,0.00,,---,0.00,VWS V14.00,2013-03-27 01:43:00,
2013-03-27 01:48:00,32.8,28.8,30.06,ESE,122,12.0,13.0,85,0.00,,---,0.00,VWS V14.00,2013-03-27 01:48:00,
2013-03-27 01:53:00,32.7,28.4,30.06,ESE,120,6.0,12.0,84,0.00,,---,0.00,VWS V14.00,2013-03-27 01:53:00,
2013-03-27 01:58:00,33.0,28.7,30.06,East,101,16.0,16.0,84,0.00,,---,0.00,VWS V14.00,2013-03-27 01:58:00,
2013-03-27 02:03:00,33.3,29.6,30.06,East,92,22.0,23.0,86,0.00,,---,0.00,VWS V14.00,2013-03-27 02:03:00,
2013-03-27 02:08:00,33.0,29.8,30.06,ESE,115,20.0,20.0,88,0.00,,---,0.00,VWS V14.00,2013-03-27 02:08:00,
2013-03-27 02:13:00,32.3,29.1,30.06,SE,125,10.0,10.0,88,0.00,,---,0.00,VWS V14.00,2013-03-27 02:13:00,
2013-03-27 02:19:00,32.2,29.3,30.05,SE,131,11.0,15.0,89,0.00,,---,0.00,VWS V14.00,2013-03-27 02:19:00,
2013-03-27 02:24:00,32.1,29.5,30.05,SE,124,12.0,13.0,90,0.00,,---,0.00,VWS V14.00,2013-03-27 02:24:00,
2013-03-27 02:29:00,32.1,29.5,30.05,SE,136,5.0,6.0,90,0.00,,---,0.00,VWS V14.00,2013-03-27 02:29:00,
2013-03-27 02:35:00,32.3,29.7,30.05,ESE,111,6.0,9.0,90,0.00,,---,0.00,VWS V14.00,2013-03-27 02:35:00,
2013-03-27 02:40:00,32.8,30.5,30.05,East,98,12.0,21.0,91,0.00,,---,0.00,VWS V14.00,2013-03-27 02:40:00,
2013-03-27 02:45:00,33.4,30.8,30.05,SE,124,28.0,28.0,90,0.00,,---,0.00,VWS V14.00,2013-03-27 02:45:00,
2013-03-27 02:50:00,33.4,30.2,30.05,ESE,118,19.0,24.0,88,0.00,,---,0.00,VWS V14.00,2013-03-27 02:50:00,
2013-03-27 02:55:00,32.9,30.0,30.05,SE,126,14.0,25.0,89,0.00,,---,0.00,VWS V14.00,2013-03-27 02:55:00,
2013-03-27 03:00:00,32.5,29.4,30.05,ENE,73,6.0,11.0,88,0.00,,---,0.00,VWS V14.00,2013-03-27 03:00:00,
2013-03-27 03:05:00,32.5,29.1,30.04,East,91,10.0,12.0,87,0.00,,---,0.00,VWS V14.00,2013-03-27 03:05:00,
2013-03-27 03:10:00,32.9,29.7,30.05,ESE,117,19.0,19.0,88,0.00,,---,0.00,VWS V14.00,2013-03-27 03:10:00,
2013-03-27 03:15:00,32.3,29.7,30.05,ESE,110,12.0,18.0,90,0.00,,---,0.00,VWS V14.00,2013-03-27 03:15:00,
2013-03-27 03:20:00,32.0,29.7,30.05,SE,126,18.0,18.0,91,0.00,,---,0.00,VWS V14.00,2013-03-27 03:20:00,
2013-03-27 03:25:00,32.2,29.6,30.04,SE,138,13.0,18.0,90,0.00,,---,0.00,VWS V14.00,2013-03-27 03:25:00,
2013-03-27 03:30:00,32.7,29.5,30.04,East,92,16.0,23.0,88,0.00,,---,0.00,VWS V14.00,2013-03-27 03:30:00,
2013-03-27 03:35:00,33.2,30.0,30.05,ESE,116,18.0,20.0,88,0.00,,---,0.00,VWS V14.00,2013-03-27 03:35:00,
2013-03-27 03:40:00,32.8,29.6,30.05,SE,135,21.0,21.0,88,0.00,,---,0.00,VWS V14.00,2013-03-27 03:40:00,
2013-03-27 03:45:00,32.4,29.8,30.04,SE,137,11.0,14.0,90,0.00,,---,0.00,VWS V14.00,2013-03-27 03:45:00,
2013-03-27 03:50:00,32.2,29.9,30.04,SE,130,11.0,14.0,91,0.00,,---,0.00,VWS V14.00,2013-03-27 03:50:00,
2013-03-27 03:55:00,32.1,29.8,30.04,SE,127,6.0,10.0,91,0.00,,---,0.00,VWS V14.00,2013-03-27 03:55:00,
2013-03-27 04:00:00,32.2,29.6,30.04,ESE,112,10.0,14.0,90,0.00,,---,0.00,VWS V14.00,2013-03-27 04:00:00,
2013-03-27 04:02:00,32.4,29.5,30.04,ESE,118,15.0,18.0,89,0.00,,---,0.00,VWS V14.00,2013-03-27 04:02:00,
2013-03-27 04:04:00,32.6,29.7,30.04,ESE,105,18.0,18.0,89,0.00,,---,0.00,VWS V14.00,2013-03-27 04:04:00,
2013-03-27 04:05:00,32.7,29.5,30.04,SE,132,12.0,16.0,88,0.00,,---,0.00,VWS V14.00,2013-03-27 04:05:00,
2013-03-27 04:10:00,32.9,29.5,30.04,SSE,167,14.0,18.0,87,0.00,,---,0.00,VWS V14.00,2013-03-27 04:10:00,
2013-03-27 04:15:00,32.7,29.5,30.04,SE,128,10.0,10.0,88,0.00,,---,0.00,VWS V14.00,2013-03-27 04:15:00,
2013-03-27 04:20:00,32.7,29.5,30.04,SE,126,13.0,15.0,88,0.00,,---,0.00,VWS V14.00,2013-03-27 04:20:00,
2013-03-27 04:26:00,33.1,29.9,30.04,ESE,109,13.0,16.0,88,0.00,,---,0.00,VWS V14.00,2013-03-27 04:26:00,
2013-03-27 04:31:00,33.3,29.9,30.04,ENE,77,17.0,22.0,87,0.00,,---,0.00,VWS V14.00,2013-03-27 04:31:00,
2013-03-27 04:36:00,33.3,29.6,30.04,East,101,19.0,20.0,86,0.00,,---,0.00,VWS V14.00,2013-03-27 04:36:00,
2013-03-27 04:41:00,33.4,29.7,30.04,East,101,16.0,21.0,86,0.00,,---,0.00,VWS V14.00,2013-03-27 04:41:00,
2013-03-27 04:46:00,33.5,29.8,30.04,ESE,109,16.0,18.0,86,0.00,,---,0.00,VWS V14.00,2013-03-27 04:46:00,
2013-03-27 04:51:00,33.7,29.4,30.04,East,85,11.0,15.0,84,0.00,,---,0.00,VWS V14.00,2013-03-27 04:51:00,
2013-03-27 04:57:00,33.7,29.7,30.04,East,94,18.0,18.0,85,0.00,,---,0.00,VWS V14.00,2013-03-27 04:57:00,
2013-03-27 05:02:00,33.6,29.9,30.03,ENE,76,7.0,9.0,86,0.00,,---,0.00,VWS V14.00,2013-03-27 05:02:00,
2013-03-27 05:07:00,33.7,30.0,30.03,ENE,74,16.0,16.0,86,0.00,,---,0.00,VWS V14.00,2013-03-27 05:07:00,
2013-03-27 05:13:00,33.8,30.4,30.04,ESE,115,12.0,14.0,87,0.00,,---,0.00,VWS V14.00,2013-03-27 05:13:00,
2013-03-27 05:18:00,34.0,30.5,30.04,ENE,61,14.0,21.0,87,0.00,,---,0.00,VWS V14.00,2013-03-27 05:18:00,
2013-03-27 05:24:00,34.1,30.6,30.04,ESE,102,12.0,23.0,87,0.00,,---,0.00,VWS V14.00,2013-03-27 05:24:00,
2013-03-27 05:29:00,33.5,30.0,30.04,East,91,18.0,23.0,87,0.00,,---,0.00,VWS V14.00,2013-03-27 05:29:00,
2013-03-27 05:34:00,32.6,29.7,30.05,East,100,17.0,17.0,89,0.00,,---,0.00,VWS V14.00,2013-03-27 05:34:00,
2013-03-27 05:39:00,31.6,29.0,30.05,ESE,109,10.0,11.0,90,0.00,,---,0.00,VWS V14.00,2013-03-27 05:39:00,
2013-03-27 05:44:00,30.9,28.9,30.05,SE,126,6.0,9.0,92,0.00,,---,0.00,VWS V14.00,2013-03-27 05:44:00,
2013-03-27 05:49:00,30.8,29.0,30.05,SE,136,4.0,5.0,93,0.00,,---,0.00,VWS V14.00,2013-03-27 05:49:00,
2013-03-27 05:54:00,30.8,29.3,30.05,ESE,123,5.0,5.0,94,0.00,,---,0.00,VWS V14.00,2013-03-27 05:54:00,
2013-03-27 05:59:00,30.9,30.9,30.04,ESE,113,4.0,4.0,100,0.00,,---,0.00,VWS V14.00,2013-03-27 05:59:00,
2013-03-27 06:04:00,31.1,29.6,30.05,SE,132,4.0,8.0,94,0.00,,---,0.00,VWS V14.00,2013-03-27 06:04:00,
2013-03-27 06:09:00,31.4,30.1,30.04,ESE,120,8.0,9.0,95,0.00,,---,0.00,VWS V14.00,2013-03-27 06:09:00,
2013-03-27 06:14:00,31.8,30.5,30.04,SE,134,14.0,15.0,95,0.00,,---,0.00,VWS V14.00,2013-03-27 06:14:00,
2013-03-27 06:19:00,32.5,31.2,30.04,SE,134,21.0,26.0,95,0.00,,---,0.00,VWS V14.00,2013-03-27 06:19:00,
2013-03-27 06:24:00,32.9,31.6,30.04,East,97,14.0,19.0,95,0.00,,---,0.00,VWS V14.00,2013-03-27 06:24:00,
2013-03-27 06:29:00,32.7,31.2,30.04,ESE,110,12.0,18.0,94,0.00,,---,0.00,VWS V14.00,2013-03-27 06:29:00,
2013-03-27 06:34:00,32.5,31.0,30.04,ESE,105,18.0,19.0,94,0.00,,---,0.00,VWS V14.00,2013-03-27 06:34:00,
2013-03-27 06:39:00,32.6,31.1,30.04,ESE,117,9.0,15.0,94,0.00,,---,0.00,VWS V14.00,2013-03-27 06:39:00,
2013-03-27 06:45:00,32.5,31.0,30.04,ESE,105,15.0,18.0,94,0.00,,---,0.00,VWS V14.00,2013-03-27 06:45:00,
2013-03-27 06:50:00,32.5,30.7,30.04,ENE,57,9.0,9.0,93,0.00,,---,0.00,VWS V14.00,2013-03-27 06:50:00,
2013-03-27 06:56:00,32.3,30.8,30.04,NE,44,12.0,12.0,94,0.00,,---,0.00,VWS V14.00,2013-03-27 06:56:00,
2013-03-27 07:02:00,32.2,30.7,30.05,ENE,65,12.0,15.0,94,0.00,,---,0.00,VWS V14.00,2013-03-27 07:02:00,
2013-03-27 07:07:00,32.2,30.7,30.05,East,86,18.0,19.0,94,0.00,,---,0.00,VWS V14.00,2013-03-27 07:07:00,
2013-03-27 07:12:00,32.6,31.1,30.05,East,94,11.0,17.0,94,0.00,,---,0.00,VWS V14.00,2013-03-27 07:12:00,
2013-03-27 07:17:00,32.4,30.9,30.05,East,83,17.0,18.0,94,0.00,,---,0.00,VWS V14.00,2013-03-27 07:17:00,
2013-03-27 07:22:00,31.9,30.4,30.05,East,96,12.0,16.0,94,0.00,,---,0.00,VWS V14.00,2013-03-27 07:22:00,
2013-03-27 07:27:00,31.7,30.2,30.05,East,79,10.0,13.0,94,0.00,,---,0.00,VWS V14.00,2013-03-27 07:27:00,
2013-03-27 07:32:00,31.9,30.6,30.05,ENE,76,12.0,16.0,95,0.00,,---,0.00,VWS V14.00,2013-03-27 07:32:00,
2013-03-27 07:37:00,32.0,30.7,30.05,East,94,17.0,19.0,95,0.00,,---,0.00,VWS V14.00,2013-03-27 07:37:00,
2013-03-27 07:42:00,31.9,30.6,30.05,ESE,109,13.0,16.0,95,0.00,,---,0.00,VWS V14.00,2013-03-27 07:42:00,
2013-03-27 07:48:00,31.5,30.2,30.05,ESE,119,16.0,16.0,95,0.00,,---,0.00,VWS V14.00,2013-03-27 07:48:00,
2013-03-27 07:53:00,31.7,30.4,30.05,ESE,117,12.0,14.0,95,0.00,,---,0.00,VWS V14.00,2013-03-27 07:53:00,
2013-03-27 07:58:00,32.2,30.9,30.05,ESE,109,12.0,14.0,95,0.00,,---,0.00,VWS V14.00,2013-03-27 07:58:00,
2013-03-27 08:03:00,32.3,31.0,30.05,ESE,115,14.0,17.0,95,0.00,,---,0.00,VWS V14.00,2013-03-27 08:03:00,
2013-03-27 08:08:00,32.3,31.0,30.05,ESE,121,15.0,16.0,95,0.00,,---,0.00,VWS V14.00,2013-03-27 08:08:00,
2013-03-27 08:13:00,32.0,30.7,30.05,ESE,123,6.0,8.0,95,0.00,,---,0.00,VWS V14.00,2013-03-27 08:13:00,
2013-03-27 08:18:00,31.9,30.6,30.05,ESE,107,5.0,6.0,95,0.00,,---,0.00,VWS V14.00,2013-03-27 08:18:00,
2013-03-27 08:23:00,31.8,30.8,30.05,ESE,102,3.0,5.0,96,0.00,,---,0.00,VWS V14.00,2013-03-27 08:23:00,
2013-03-27 08:28:00,31.8,30.8,30.05,East,81,6.0,6.0,96,0.00,,---,0.00,VWS V14.00,2013-03-27 08:28:00,
2013-03-27 08:33:00,31.7,30.7,30.05,ENE,63,9.0,11.0,96,0.00,,---,0.00,VWS V14.00,2013-03-27 08:33:00,
2013-03-27 08:38:00,31.7,30.7,30.05,ENE,71,4.0,11.0,96,0.00,,---,0.00,VWS V14.00,2013-03-27 08:38:00,
2013-03-27 08:44:00,31.5,30.5,30.05,ENE,67,5.0,5.0,96,0.00,,---,0.00,VWS V14.00,2013-03-27 08:44:00,
2013-03-27 08:49:00,31.5,30.5,30.05,ESE,117,6.0,7.0,96,0.00,,---,0.00,VWS V14.00,2013-03-27 08:49:00,
2013-03-27 08:55:00,31.7,30.7,30.05,SE,126,12.0,12.0,96,0.00,,---,0.00,VWS V14.00,2013-03-27 08:55:00,
2013-03-27 09:00:00,31.7,30.7,30.05,East,96,10.0,11.0,96,0.00,,---,0.00,VWS V14.00,2013-03-27 09:00:00,
2013-03-27 09:05:00,32.0,31.2,30.05,East,84,17.0,22.0,97,0.00,,---,0.00,VWS V14.00,2013-03-27 09:05:00,
2013-03-27 09:11:00,32.1,31.1,30.05,ESE,117,12.0,19.0,96,0.00,,---,0.00,VWS V14.00,2013-03-27 09:11:00,
2013-03-27 09:16:00,32.3,31.3,30.05,ESE,104,11.0,17.0,96,0.00,,---,0.00,VWS V14.00,2013-03-27 09:16:00,
2013-03-27 09:21:00,32.4,30.9,30.05,SSE,151,7.0,18.0,94,0.00,,---,0.00,VWS V14.00,2013-03-27 09:21:00,
2013-03-27 09:27:00,32.6,31.1,30.05,ESE,108,15.0,18.0,94,0.00,,---,0.00,VWS V14.00,2013-03-27 09:27:00,
2013-03-27 09:32:00,32.6,30.8,30.05,SE,126,18.0,18.0,93,0.00,,---,0.00,VWS V14.00,2013-03-27 09:32:00,
2013-03-27 09:37:00,32.8,31.0,30.05,SE,128,8.0,14.0,93,0.00,,---,0.00,VWS V14.00,2013-03-27 09:37:00,
2013-03-27 09:42:00,33.0,30.9,30.05,East,89,6.0,13.0,92,0.00,,---,0.00,VWS V14.00,2013-03-27 09:42:00,
2013-03-27 09:47:00,33.2,31.1,30.05,ESE,119,9.0,11.0,92,0.00,,---,0.00,VWS V14.00,2013-03-27 09:47:00,
2013-03-27 09:52:00,33.4,31.3,30.05,ESE,122,9.0,11.0,92,0.00,,---,0.00,VWS V14.00,2013-03-27 09:52:00,
2013-03-27 09:57:00,33.5,31.4,30.04,ESE,111,11.0,14.0,92,0.00,,---,0.00,VWS V14.00,2013-03-27 09:57:00,
2013-03-27 10:03:00,33.9,31.8,30.04,East,93,7.0,12.0,92,0.00,,---,0.00,VWS V14.00,2013-03-27 10:03:00,
2013-03-27 10:08:00,33.9,31.6,30.04,ESE,108,11.0,13.0,91,0.00,,---,0.00,VWS V14.00,2013-03-27 10:08:00,
2013-03-27 10:13:00,34.0,31.6,30.05,East,90,18.0,18.0,91,0.00,,---,0.00,VWS V14.00,2013-03-27 10:13:00,
2013-03-27 10:18:00,33.9,31.0,30.05,East,89,11.0,13.0,89,0.00,,---,0.00,VWS V14.00,2013-03-27 10:18:00,
2013-03-27 10:24:00,34.4,30.9,30.04,ESE,109,12.0,15.0,87,0.00,,---,0.00,VWS V14.00,2013-03-27 10:24:00,
2013-03-27 10:29:00,34.7,31.2,30.05,East,82,15.0,17.0,87,0.00,,---,0.00,VWS V14.00,2013-03-27 10:29:00,
2013-03-27 10:34:00,34.7,30.1,30.04,East,90,10.0,11.0,83,0.00,,---,0.00,VWS V14.00,2013-03-27 10:34:00,
2013-03-27 10:39:00,35.1,31.3,30.04,ESE,123,6.0,11.0,86,0.00,,---,0.00,VWS V14.00,2013-03-27 10:39:00,
2013-03-27 10:44:00,35.3,32.1,30.04,ESE,111,11.0,14.0,88,0.00,,---,0.00,VWS V14.00,2013-03-27 10:44:00,
2013-03-27 10:50:00,35.1,30.5,30.04,East,100,15.0,21.0,83,0.00,,---,0.00,VWS V14.00,2013-03-27 10:50:00,
2013-03-27 10:55:00,35.2,30.3,30.04,ESE,108,12.0,20.0,82,0.01,,---,0.01,VWS V14.00,2013-03-27 10:55:00,
2013-03-27 11:00:00,34.7,30.1,30.04,ESE,119,17.0,18.0,83,0.01,,---,0.01,VWS V14.00,2013-03-27 11:00:00,
2013-03-27 11:05:00,34.4,30.1,30.04,ESE,110,10.0,16.0,84,0.01,,---,0.01,VWS V14.00,2013-03-27 11:05:00,
2013-03-27 11:10:00,34.5,30.2,30.04,East,96,10.0,14.0,84,0.01,,---,0.01,VWS V14.00,2013-03-27 11:10:00,
2013-03-27 11:16:00,34.7,30.7,30.04,East,90,13.0,13.0,85,0.01,,---,0.01,VWS V14.00,2013-03-27 11:16:00,
2013-03-27 11:21:00,34.9,31.1,30.04,East,94,15.0,15.0,86,0.01,,---,0.01,VWS V14.00,2013-03-27 11:21:00,
2013-03-27 11:27:00,35.2,31.1,30.04,ESE,111,12.0,14.0,85,0.01,,---,0.01,VWS V14.00,2013-03-27 11:27:00,
2013-03-27 11:33:00,35.3,31.0,30.04,ESE,114,6.0,17.0,84,0.01,,---,0.01,VWS V14.00,2013-03-27 11:33:00,
2013-03-27 11:38:00,35.2,30.6,30.04,ESE,105,15.0,16.0,83,0.01,,---,0.01,VWS V14.00,2013-03-27 11:38:00,
2013-03-27 11:43:00,35.2,30.6,30.04,East,89,6.0,10.0,83,0.01,,---,0.01,VWS V14.00,2013-03-27 11:43:00,
2013-03-27 11:48:00,35.0,30.4,30.05,ENE,66,15.0,17.0,83,0.02,,---,0.02,VWS V14.00,2013-03-27 11:48:00,
2013-03-27 11:53:00,34.3,29.7,30.04,ENE,69,14.0,21.0,83,0.02,,---,0.02,VWS V14.00,2013-03-27 11:53:00,
2013-03-27 11:58:00,34.3,29.4,30.05,ENE,68,10.0,15.0,82,0.01,,---,0.02,VWS V14.00,2013-03-27 11:58:00,
2013-03-27 12:03:00,34.4,29.2,30.05,NE,36,10.0,15.0,81,0.01,,---,0.02,VWS V14.00,2013-03-27 12:03:00,
2013-03-27 12:08:00,34.5,29.6,30.05,ENE,69,12.0,13.0,82,0.01,,---,0.02,VWS V14.00,2013-03-27 12:08:00,
2013-03-27 12:13:00,34.4,29.5,30.05,ENE,57,11.0,13.0,82,0.01,,---,0.02,VWS V14.00,2013-03-27 12:13:00,
2013-03-27 12:18:00,34.0,30.0,30.05,NE,42,9.0,13.0,85,0.01,,---,0.02,VWS V14.00,2013-03-27 12:18:00,
2013-03-27 12:24:00,33.3,30.1,30.05,ENE,66,6.0,7.0,88,0.01,,---,0.02,VWS V14.00,2013-03-27 12:24:00,
2013-03-27 12:29:00,33.1,30.5,30.04,ENE,67,4.0,6.0,90,0.01,,---,0.02,VWS V14.00,2013-03-27 12:29:00,
2013-03-27 12:34:00,33.4,31.1,30.04,NE,55,6.0,10.0,91,0.01,,---,0.02,VWS V14.00,2013-03-27 12:34:00,
2013-03-27 12:39:00,33.9,31.6,30.04,NE,51,11.0,13.0,91,0.01,,---,0.02,VWS V14.00,2013-03-27 12:39:00,
2013-03-27 12:44:00,34.4,30.4,30.05,East,80,13.0,15.0,85,0.01,,---,0.02,VWS V14.00,2013-03-27 12:44:00,
2013-03-27 12:49:00,34.8,30.5,30.05,East,86,12.0,20.0,84,0.00,,---,0.02,VWS V14.00,2013-03-27 12:49:00,
2013-03-27 12:55:00,34.9,30.6,30.05,SE,144,15.0,19.0,84,0.00,,---,0.02,VWS V14.00,2013-03-27 12:55:00,
2013-03-27 13:00:00,34.5,31.0,30.05,ESE,120,11.0,20.0,87,0.00,,---,0.02,VWS V14.00,2013-03-27 13:00:00,
2013-03-27 13:05:00,34.4,31.5,30.05,SE,130,7.0,13.0,89,0.00,,---,0.02,VWS V14.00,2013-03-27 13:05:00,
2013-03-27 13:10:00,34.7,31.8,30.05,ESE,109,10.0,16.0,89,0.00,,---,0.02,VWS V14.00,2013-03-27 13:10:00,
2013-03-27 13:15:00,35.0,32.1,30.04,ESE,120,9.0,17.0,89,0.00,,---,0.02,VWS V14.00,2013-03-27 13:15:00,
2013-03-27 13:20:00,35.1,31.9,30.04,ESE,103,9.0,16.0,88,0.00,,---,0.02,VWS V14.00,2013-03-27 13:20:00,
2013-03-27 13:25:00,35.1,31.6,30.05,ESE,109,13.0,18.0,87,0.00,,---,0.02,VWS V14.00,2013-03-27 13:25:00,
2013-03-27 13:30:00,34.8,31.6,30.04,ESE,118,10.0,19.0,88,0.00,,---,0.02,VWS V14.00,2013-03-27 13:30:00,
2013-03-27 13:35:00,34.3,31.4,30.05,East,84,15.0,17.0,89,0.00,,---,0.02,VWS V14.00,2013-03-27 13:35:00,
2013-03-27 13:42:00,33.9,31.3,30.05,East,91,15.0,19.0,90,0.00,,---,0.02,VWS V14.00,2013-03-27 13:42:00,
2013-03-27 13:47:00,33.2,31.1,30.05,East,100,18.0,18.0,92,0.00,,---,0.02,VWS V14.00,2013-03-27 13:47:00,
2013-03-27 13:52:00,33.2,31.4,30.05,East,87,11.0,11.0,93,0.00,,---,0.02,VWS V14.00,2013-03-27 13:52:00,
2013-03-27 13:57:00,33.4,31.3,30.04,East,93,17.0,18.0,92,0.00,,---,0.02,VWS V14.00,2013-03-27 13:57:00,
2013-03-27 14:02:00,33.9,31.6,30.04,ENE,76,12.0,17.0,91,0.00,,---,0.02,VWS V14.00,2013-03-27 14:02:00,
2013-03-27 14:07:00,34.6,32.0,30.05,East,93,14.0,17.0,90,0.00,,---,0.02,VWS V14.00,2013-03-27 14:07:00,
2013-03-27 14:12:00,34.9,31.4,30.04,ESE,120,13.0,21.0,87,0.00,,---,0.02,VWS V14.00,2013-03-27 14:12:00,
2013-03-27 14:17:00,35.0,30.7,30.04,East,101,9.0,12.0,84,0.00,,---,0.02,VWS V14.00,2013-03-27 14:17:00,
2013-03-27 14:22:00,35.6,30.7,30.04,East,89,13.0,16.0,82,0.00,,---,0.02,VWS V14.00,2013-03-27 14:22:00,
2013-03-27 14:27:00,36.0,30.8,30.04,East,97,11.0,11.0,81,0.00,,---,0.02,VWS V14.00,2013-03-27 14:27:00,
2013-03-27 14:33:00,36.3,31.3,30.04,ESE,105,16.0,16.0,82,0.00,,---,0.02,VWS V14.00,2013-03-27 14:33:00,
2013-03-27 14:38:00,36.2,31.5,30.04,ESE,108,13.0,16.0,83,0.00,,---,0.02,VWS V14.00,2013-03-27 14:38:00,
2013-03-27 14:44:00,35.9,31.5,30.04,East,85,19.0,23.0,84,0.01,,---,0.02,VWS V14.00,2013-03-27 14:44:00,
2013-03-27 14:49:00,35.3,31.2,30.04,ENE,69,8.0,12.0,85,0.01,,---,0.02,VWS V14.00,2013-03-27 14:49:00,
2013-03-27 14:54:00,35.3,31.8,30.04,ENE,76,23.0,23.0,87,0.01,,---,0.02,VWS V14.00,2013-03-27 14:54:00,
2013-03-27 14:59:00,35.4,31.6,30.04,East,93,16.0,21.0,86,0.01,,---,0.02,VWS V14.00,2013-03-27 14:59:00,
2013-03-27 15:05:00,35.6,31.5,30.04,NE,49,11.0,15.0,85,0.01,,---,0.02,VWS V14.00,2013-03-27 15:05:00,
2013-03-27 15:10:00,35.7,31.4,30.04,ENE,59,11.0,18.0,84,0.01,,---,0.02,VWS V14.00,2013-03-27 15:10:00,
2013-03-27 15:15:00,35.7,31.0,30.04,ENE,76,16.0,23.0,83,0.01,,---,0.02,VWS V14.00,2013-03-27 15:15:00,
2013-03-27 15:20:00,35.4,30.2,30.04,ENE,57,15.0,19.0,81,0.01,,---,0.02,VWS V14.00,2013-03-27 15:20:00,
2013-03-27 15:25:00,35.3,29.8,30.04,NE,56,21.0,21.0,80,0.01,,---,0.02,VWS V14.00,2013-03-27 15:25:00,
2013-03-27 15:31:00,35.0,30.1,30.04,NE,54,16.0,21.0,82,0.01,,---,0.02,VWS V14.00,2013-03-27 15:31:00,
2013-03-27 15:36:00,34.7,30.4,30.04,NE,47,10.0,17.0,84,0.01,,---,0.02,VWS V14.00,2013-03-27 15:36:00,
2013-03-27 15:41:00,34.4,30.4,30.04,ENE,60,9.0,13.0,85,0.00,,---,0.02,VWS V14.00,2013-03-27 15:41:00,
2013-03-27 15:46:00,34.4,30.6,30.04,NE,44,12.0,15.0,86,0.00,,---,0.02,VWS V14.00,2013-03-27 15:46:00,
2013-03-27 15:51:00,34.5,31.0,30.04,NNE,32,12.0,13.0,87,0.00,,---,0.02,VWS V14.00,2013-03-27 15:51:00,
2013-03-27 15:56:00,34.5,31.3,30.04,ENE,57,18.0,20.0,88,0.00,,---,0.02,VWS V14.00,2013-03-27 15:56:00,
2013-03-27 16:02:00,34.6,31.7,30.03,NE,53,11.0,12.0,89,0.00,,---,0.02,VWS V14.00,2013-03-27 16:02:00,
2013-03-27 16:07:00,34.6,31.7,30.03,NE,53,7.0,14.0,89,0.00,,---,0.02,VWS V14.00,2013-03-27 16:07:00,
2013-03-27 16:13:00,35.0,31.8,30.03,ENE,75,11.0,12.0,88,0.00,,---,0.02,VWS V14.00,2013-03-27 16:13:00,
2013-03-27 16:18:00,35.4,31.4,30.03,ENE,78,15.0,15.0,85,0.00,,---,0.02,VWS V14.00,2013-03-27 16:18:00,
2013-03-27 16:23:00,35.5,30.9,30.04,ENE,59,19.0,19.0,83,0.00,,---,0.02,VWS V14.00,2013-03-27 16:23:00,
2013-03-27 16:28:00,35.5,30.3,30.03,ENE,76,15.0,15.0,81,0.00,,---,0.02,VWS V14.00,2013-03-27 16:28:00,
2013-03-27 16:33:00,35.6,29.7,30.03,ENE,63,14.0,14.0,79,0.00,,---,0.02,VWS V14.00,2013-03-27 16:33:00,
2013-03-27 16:38:00,35.8,29.9,30.03,ENE,76,13.0,14.0,79,0.00,,---,0.02,VWS V14.00,2013-03-27 16:38:00,
2013-03-27 16:43:00,35.9,30.0,30.03,East,90,5.0,13.0,79,0.00,,---,0.02,VWS V14.00,2013-03-27 16:43:00,
2013-03-27 16:48:00,36.0,30.4,30.03,ENE,65,12.0,18.0,80,0.00,,---,0.02,VWS V14.00,2013-03-27 16:48:00,
2013-03-27 16:53:00,35.9,30.0,30.04,ENE,62,10.0,15.0,79,0.00,,---,0.02,VWS V14.00,2013-03-27 16:53:00,
2013-03-27 16:59:00,36.0,30.1,30.04,ENE,62,17.0,18.0,79,0.00,,---,0.02,VWS V14.00,2013-03-27 16:59:00,
2013-03-27 17:04:00,36.1,29.9,30.04,ENE,72,7.0,17.0,78,0.00,,---,0.02,VWS V14.00,2013-03-27 17:04:00,
2013-03-27 17:09:00,36.2,30.3,30.04,East,84,9.0,18.0,79,0.00,,---,0.02,VWS V14.00,2013-03-27 17:09:00,
2013-03-27 17:14:00,36.2,30.0,30.04,ENE,61,9.0,18.0,78,0.00,,---,0.02,VWS V14.00,2013-03-27 17:14:00,
2013-03-27 17:19:00,36.2,30.0,30.03,ENE,63,18.0,18.0,78,0.00,,---,0.02,VWS V14.00,2013-03-27 17:19:00,
2013-03-27 17:24:00,36.2,29.7,30.04,ENE,61,11.0,12.0,77,0.00,,---,0.02,VWS V14.00,2013-03-27 17:24:00,
2013-03-27 17:30:00,36.4,30.5,30.04,East,85,12.0,16.0,79,0.00,,---,0.02,VWS V14.00,2013-03-27 17:30:00,
2013-03-27 17:35:00,36.4,30.8,30.04,East,85,19.0,21.0,80,0.00,,---,0.02,VWS V14.00,2013-03-27 17:35:00,
2013-03-27 17:42:00,35.7,30.1,30.04,ESE,107,14.0,14.0,80,0.00,,---,0.02,VWS V14.00,2013-03-27 17:42:00,
2013-03-27 17:47:00,35.4,30.5,30.03,East,86,9.0,12.0,82,0.00,,---,0.02,VWS V14.00,2013-03-27 17:47:00,
2013-03-27 17:59:00,35.1,31.0,30.04,East,90,9.0,12.0,85,0.00,,---,0.02,VWS V14.00,2013-03-27 17:59:00,
2013-03-27 18:04:00,34.9,31.1,30.04,ESE,110,9.0,11.0,86,0.00,,---,0.02,VWS V14.00,2013-03-27 18:04:00,
2013-03-27 18:09:00,34.8,31.3,30.04,East,101,9.0,11.0,87,0.00,,---,0.02,VWS V14.00,2013-03-27 18:09:00,
2013-03-27 18:14:00,34.9,31.1,30.04,East,96,5.0,8.0,86,0.00,,---,0.02,VWS V14.00,2013-03-27 18:14:00,
2013-03-27 18:19:00,35.0,30.7,30.04,ENE,76,15.0,18.0,84,0.00,,---,0.02,VWS V14.00,2013-03-27 18:19:00,
2013-03-27 18:24:00,35.3,30.1,30.04,ENE,61,18.0,18.0,81,0.00,,---,0.02,VWS V14.00,2013-03-27 18:24:00,
2013-03-27 18:29:00,35.7,31.6,30.04,East,101,12.0,14.0,85,0.00,,---,0.02,VWS V14.00,2013-03-27 18:29:00,
2013-03-27 18:34:00,35.4,31.6,30.04,ENE,78,10.0,13.0,86,0.00,,---,0.02,VWS V14.00,2013-03-27 18:34:00,
2013-03-27 18:39:00,35.2,31.4,30.04,ESE,119,18.0,18.0,86,0.00,,---,0.02,VWS V14.00,2013-03-27 18:39:00,
2013-03-27 18:44:00,35.0,31.5,30.04,East,95,19.0,19.0,87,0.00,,---,0.02,VWS V14.00,2013-03-27 18:44:00,
2013-03-27 18:49:00,35.0,31.5,30.04,ENE,75,14.0,15.0,87,0.00,,---,0.02,VWS V14.00,2013-03-27 18:49:00,
2013-03-27 18:54:00,35.0,31.2,30.04,East,96,9.0,18.0,86,0.00,,---,0.02,VWS V14.00,2013-03-27 18:54:00,
2013-03-27 18:59:00,35.0,31.0,30.05,East,93,11.0,18.0,85,0.00,,---,0.02,VWS V14.00,2013-03-27 18:59:00,
2013-03-27 19:04:00,35.0,30.7,30.04,ENE,76,22.0,22.0,84,0.00,,---,0.02,VWS V14.00,2013-03-27 19:04:00,
2013-03-27 19:09:00,34.7,31.2,30.05,East,93,14.0,17.0,87,0.00,,---,0.02,VWS V14.00,2013-03-27 19:09:00,
2013-03-27 19:14:00,33.8,30.9,30.05,East,86,13.0,23.0,89,0.00,,---,0.02,VWS V14.00,2013-03-27 19:14:00,
2013-03-27 19:20:00,33.3,30.7,30.05,ESE,108,16.0,19.0,90,0.00,,---,0.02,VWS V14.00,2013-03-27 19:20:00,
2013-03-27 19:25:00,33.3,30.7,30.05,East,88,9.0,10.0,90,0.00,,---,0.02,VWS V14.00,2013-03-27 19:25:00,
2013-03-27 19:30:00,33.3,30.4,30.05,ENE,64,9.0,13.0,89,0.00,,---,0.02,VWS V14.00,2013-03-27 19:30:00,
2013-03-27 19:35:00,33.4,30.2,30.05,East,86,7.0,12.0,88,0.00,,---,0.02,VWS V14.00,2013-03-27 19:35:00,
2013-03-27 19:40:00,33.8,30.4,30.05,ENE,72,12.0,12.0,87,0.00,,---,0.02,VWS V14.00,2013-03-27 19:40:00,
2013-03-27 19:45:00,34.1,30.9,30.05,East,79,11.0,12.0,88,0.00,,---,0.02,VWS V14.00,2013-03-27 19:45:00,
2013-03-27 19:50:00,34.0,30.5,30.05,East,86,6.0,11.0,87,0.00,,---,0.02,VWS V14.00,2013-03-27 19:50:00,
2013-03-27 19:55:00,34.1,30.6,30.05,ESE,111,6.0,7.0,87,0.00,,---,0.02,VWS V14.00,2013-03-27 19:55:00,
2013-03-27 20:01:00,34.4,30.6,30.05,East,81,4.0,10.0,86,0.00,,---,0.02,VWS V14.00,2013-03-27 20:01:00,
2013-03-27 20:06:00,34.5,30.8,30.05,ENE,71,7.0,10.0,86,0.00,,---,0.02,VWS V14.00,2013-03-27 20:06:00,
2013-03-27 20:12:00,34.5,32.4,30.05,East,99,18.0,18.0,92,0.00,,---,0.02,VWS V14.00,2013-03-27 20:12:00,
2013-03-27 20:17:00,34.2,31.3,30.05,ENE,71,11.0,12.0,89,0.00,,---,0.02,VWS V14.00,2013-03-27 20:17:00,
2013-03-27 20:22:00,33.7,30.8,30.05,ENE,77,19.0,23.0,89,0.00,,---,0.02,VWS V14.00,2013-03-27 20:22:00,
2013-03-27 20:27:00,33.5,30.6,30.06,East,82,16.0,19.0,89,0.00,,---,0.02,VWS V14.00,2013-03-27 20:27:00,
2013-03-27 20:32:00,33.2,30.3,30.05,ENE,68,10.0,11.0,89,0.00,,---,0.02,VWS V14.00,2013-03-27 20:32:00,
2013-03-27 20:37:00,33.4,30.5,30.05,ENE,74,9.0,12.0,89,0.00,,---,0.02,VWS V14.00,2013-03-27 20:37:00,
2013-03-27 20:42:00,34.1,30.9,30.05,ENE,73,14.0,19.0,88,0.00,,---,0.02,VWS V14.00,2013-03-27 20:42:00,
2013-03-27 20:47:00,34.6,30.9,30.05,East,82,19.0,21.0,86,0.00,,---,0.02,VWS V14.00,2013-03-27 20:47:00,
2013-03-27 20:52:00,34.9,30.9,30.05,ENE,59,12.0,16.0,85,0.00,,---,0.02,VWS V14.00,2013-03-27 20:52:00,
2013-03-27 20:57:00,35.1,30.8,30.05,NE,55,17.0,19.0,84,0.00,,---,0.02,VWS V14.00,2013-03-27 20:57:00,
2013-03-27 21:02:00,35.2,30.9,30.05,ENE,77,6.0,14.0,84,0.00,,---,0.02,VWS V14.00,2013-03-27 21:02:00,
2013-03-27 21:07:00,35.2,30.9,30.05,East,101,10.0,17.0,84,0.00,,---,0.02,VWS V14.00,2013-03-27 21:07:00,
2013-03-27 21:12:00,35.3,31.0,30.04,ENE,62,11.0,12.0,84,0.00,,---,0.02,VWS V14.00,2013-03-27 21:12:00,
2013-03-27 21:17:00,35.3,30.7,30.04,ENE,74,16.0,20.0,83,0.00,,---,0.02,VWS V14.00,2013-03-27 21:17:00,
2013-03-27 21:22:00,35.3,30.7,30.04,East,94,15.0,18.0,83,0.00,,---,0.02,VWS V14.00,2013-03-27 21:22:00,
2013-03-27 21:27:00,35.4,30.8,30.04,East,83,11.0,12.0,83,0.00,,---,0.02,VWS V14.00,2013-03-27 21:27:00,
2013-03-27 21:32:00,35.4,30.5,30.04,East,88,12.0,18.0,82,0.00,,---,0.02,VWS V14.00,2013-03-27 21:32:00,
2013-03-27 21:37:00,35.5,31.5,30.04,SE,124,23.0,23.0,85,0.00,,---,0.02,VWS V14.00,2013-03-27 21:37:00,
2013-03-27 21:42:00,34.7,31.5,30.05,ESE,119,19.0,21.0,88,0.00,,---,0.02,VWS V14.00,2013-03-27 21:42:00,
2013-03-27 21:47:00,33.8,30.9,30.05,ESE,110,12.0,18.0,89,0.00,,---,0.02,VWS V14.00,2013-03-27 21:47:00,
2013-03-27 21:52:00,33.2,30.6,30.05,ESE,118,7.0,10.0,90,0.00,,---,0.02,VWS V14.00,2013-03-27 21:52:00,
2013-03-27 21:57:00,32.8,30.5,30.05,ESE,109,4.0,6.0,91,0.00,,---,0.02,VWS V14.00,2013-03-27 21:57:00,
2013-03-27 22:02:00,32.8,30.7,30.05,SE,134,13.0,17.0,92,0.00,,---,0.02,VWS V14.00,2013-03-27 22:02:00,
2013-03-27 22:07:00,32.9,30.6,30.04,ESE,119,8.0,12.0,91,0.00,,---,0.02,VWS V14.00,2013-03-27 22:07:00,
2013-03-27 22:12:00,33.1,30.8,30.04,ESE,120,14.0,15.0,91,0.00,,---,0.02,VWS V14.00,2013-03-27 22:12:00,
2013-03-27 22:17:00,33.0,30.9,30.04,ESE,107,5.0,9.0,92,0.00,,---,0.02,VWS V14.00,2013-03-27 22:17:00,
2013-03-27 22:22:00,32.9,30.8,30.04,ENE,69,3.0,4.0,92,0.00,,---,0.02,VWS V14.00,2013-03-27 22:22:00,
2013-03-27 22:27:00,32.8,30.7,30.04,East,79,6.0,10.0,92,0.00,,---,0.02,VWS V14.00,2013-03-27 22:27:00,
2013-03-27 22:32:00,32.9,31.1,30.04,ENE,57,5.0,6.0,93,0.00,,---,0.02,VWS V14.00,2013-03-27 22:32:00,
2013-03-27 22:37:00,32.9,31.1,30.04,ENE,62,5.0,6.0,93,0.00,,---,0.02,VWS V14.00,2013-03-27 22:37:00,
2013-03-27 22:42:00,32.9,31.4,30.04,ENE,76,5.0,10.0,94,0.00,,---,0.02,VWS V14.00,2013-03-27 22:42:00,
2013-03-27 22:47:00,33.1,31.6,30.04,SE,128,5.0,10.0,94,0.00,,---,0.02,VWS V14.00,2013-03-27 22:47:00,
2013-03-27 22:52:00,33.2,31.7,30.04,SE,128,11.0,13.0,94,0.00,,---,0.02,VWS V14.00,2013-03-27 22:52:00,
2013-03-27 22:57:00,33.1,31.6,30.04,SE,139,10.0,13.0,94,0.00,,---,0.02,VWS V14.00,2013-03-27 22:57:00,
2013-03-27 23:02:00,33.1,31.6,30.04,SE,126,11.0,16.0,94,0.00,,---,0.02,VWS V14.00,2013-03-27 23:02:00,
2013-03-27 23:07:00,33.0,31.2,30.04,SE,144,11.0,18.0,93,0.00,,---,0.02,VWS V14.00,2013-03-27 23:07:00,
2013-03-27 23:12:00,33.2,31.4,30.04,ESE,119,6.0,15.0,93,0.00,,---,0.02,VWS V14.00,2013-03-27 23:12:00,
2013-03-27 23:17:00,33.2,30.9,30.04,SE,130,10.0,12.0,91,0.00,,---,0.02,VWS V14.00,2013-03-27 23:17:00,
2013-03-27 23:22:00,33.5,31.2,30.04,ESE,123,10.0,15.0,91,0.00,,---,0.02,VWS V14.00,2013-03-27 23:22:00,
2013-03-27 23:27:00,33.7,31.1,30.04,SE,127,13.0,14.0,90,0.00,,---,0.02,VWS V14.00,2013-03-27 23:27:00,
2013-03-27 23:32:00,33.7,31.1,30.04,SE,128,15.0,15.0,90,0.00,,---,0.02,VWS V14.00,2013-03-27 23:32:00,
2013-03-27 23:37:00,33.1,30.8,30.04,ESE,112,21.0,22.0,91,0.00,,---,0.02,VWS V14.00,2013-03-27 23:37:00,
2013-03-27 23:42:00,32.8,31.0,30.04,ESE,103,17.0,21.0,93,0.00,,---,0.02,VWS V14.00,2013-03-27 23:42:00,
2013-03-27 23:47:00,32.4,30.6,30.04,SE,132,18.0,22.0,93,0.00,,---,0.02,VWS V14.00,2013-03-27 23:47:00,
2013-03-27 23:52:00,32.5,30.4,30.05,ESE,115,15.0,19.0,92,0.00,,---,0.02,VWS V14.00,2013-03-27 23:52:00,
2013-03-27 23:57:00,32.5,29.9,30.05,ESE,108,19.0,22.0,90,0.00,,---,0.02,VWS V14.00,2013-03-27 23:57:00,